Date String (YYYY-MM-DD hh:mm:ss) UTC,Instrument flags,absolute air pressure of the measurement (hPa),sample flow rate (lpm),inlet stack bypass flow (lpm),air temperature of the measurement (°C),ambient temperature measured by the external sensor (°C),aerosol sample conditioner tube jacket temperature (°C),OPC LED temperature (°C),internal box temperature (°C),relative humidity of the measurement (%),span deviation,mass concentration of particles derived from Lorenz-Mie calculation of OPC scattering (μg/m³),mass concentration of particles derived from Lorenz-Mie calculation of OPC scattering (μg/m³),mass concentration of particles derived from Lorenz-Mie calculation of OPC scattering (μg/m³)
DateTimeUTC,F1_M11,P_M11,Q1_M11,Q2_M11,T1_M11,T2_M11,T3_M11,T4_M11,T5_M11,U1_M11,ZSPAN_M11,X0_M11,X2_M11,X1_M11
2024-02-04 12:00:00,SystemResetWarning,0823.8,5.00,000.00,018.4,017.9,000.0,026.9,020.0,20.7,0000.0,0002.75,0001.38,0001.12
2024-02-04 12:01:00,SystemResetWarning,0823.8,5.00,000.00,018.4,017.9,000.0,026.8,020.0,21.1,0000.0,0003.47,0001.43,0001.12
2024-02-04 12:02:00,SystemResetWarning,0823.9,4.99,000.00,018.4,017.8,000.0,026.8,020.0,21.2,0000.0,0003.79,0001.59,0001.23
2024-02-04 12:03:00,SystemResetWarning,0823.9,5.00,000.00,018.4,017.8,000.0,026.8,020.0,21.1,0000.0,0004.11,0001.80,0001.38
2024-02-04 12:04:00,SystemResetWarning,0824.0,5.00,000.00,018.4,017.8,000.0,026.8,020.0,21.0,0000.0,0004.37,0001.99,0001.54
2024-02-04 12:05:00,SystemResetWarning,0824.0,5.00,000.00,018.4,017.8,000.0,026.8,020.0,20.9,0000.0,0004.60,0002.13,0001.67
2024-02-04 12:06:00,SystemResetWarning,0824.0,5.02,000.00,018.4,017.8,000.0,026.8,020.0,20.9,0000.0,0004.73,0002.20,0001.71
2024-02-04 12:07:00,SystemResetWarning,0824.0,5.00,000.00,018.4,017.8,000.0,026.8,020.0,20.9,0000.0,0004.83,0002.24,0001.72
2024-02-04 12:08:00,SystemResetWarning,0824.0,4.98,000.00,018.3,017.8,000.0,026.8,020.0,20.8,0000.0,0004.28,0002.28,0001.75
2024-02-04 12:09:00,SystemResetWarning,0824.0,4.99,000.00,018.3,017.8,000.0,026.8,020.0,20.9,0000.0,0004.47,0002.31,0001.77
2024-02-04 12:10:00,SystemResetWarning,0824.0,5.01,000.00,018.3,017.7,000.0,026.8,020.0,21.0,0000.0,0004.76,0002.34,0001.78
2024-02-04 12:11:00,SystemResetWarning,0824.0,5.00,000.00,018.3,017.7,000.0,026.8,020.0,21.1,0000.0,0004.93,0002.38,0001.81
2024-02-04 12:12:00,SystemResetWarning,0824.0,5.01,000.00,018.3,017.7,000.0,026.8,020.0,21.2,0000.0,0004.60,0002.35,0001.82
2024-02-04 12:13:00,SystemResetWarning,0824.0,5.00,000.00,018.3,017.7,000.0,026.8,020.0,21.2,0000.0,0005.17,0002.24,0001.74
2024-02-04 12:14:00,SystemResetWarning,0824.0,4.99,000.00,018.3,017.7,000.0,026.8,020.0,21.3,0000.0,0005.99,0002.14,0001.65
2024-02-04 12:15:00,SystemResetWarning,0824.1,4.99,000.00,018.3,017.7,000.0,026.8,020.0,21.3,0000.0,0005.86,0002.01,0001.53
2024-02-04 12:16:00,SystemResetWarning,0824.1,4.99,000.00,018.3,017.7,000.0,026.8,020.0,21.3,0000.0,0006.14,0001.97,0001.47
2024-02-04 12:17:00,SystemResetWarning,0824.1,5.00,000.00,018.3,017.7,000.0,026.8,020.0,21.0,0000.0,0007.17,0002.02,0001.51
2024-02-04 12:18:00,SystemResetWarning,0824.2,5.01,000.00,018.3,017.7,000.0,026.8,020.0,21.0,0000.0,0007.30,0002.15,0001.61
2024-02-04 12:19:00,SystemResetWarning,0824.1,5.00,000.00,018.3,017.7,000.0,026.8,020.0,21.0,0000.0,0007.36,0002.25,0001.70
2024-02-04 12:20:00,SystemResetWarning,0824.1,5.01,000.00,018.3,017.6,000.0,026.8,020.0,21.0,0000.0,0007.33,0002.40,0001.82
2024-02-04 12:21:00,SystemResetWarning,0824.1,5.00,000.00,018.3,017.6,000.0,026.8,020.0,21.0,0000.0,0007.84,0002.58,0001.98
2024-02-04 12:22:00,SystemResetWarning,0824.1,5.00,000.00,018.3,017.6,000.0,026.8,020.0,21.0,0000.0,0008.12,0002.76,0002.15
2024-02-04 12:23:00,SystemResetWarning,0824.2,5.00,000.00,018.3,017.6,000.0,026.8,020.0,21.2,0000.0,0008.04,0002.91,0002.30
2024-02-04 12:24:00,SystemResetWarning,0824.2,5.00,000.00,018.3,017.6,000.0,026.8,020.0,20.7,0000.0,0007.74,0003.06,0002.48
2024-02-04 12:25:00,SystemResetWarning,0824.2,4.99,000.00,018.3,017.6,000.0,026.8,020.0,20.5,0000.0,0007.33,0003.15,0002.63
2024-02-04 12:26:00,SystemResetWarning,0824.1,5.00,000.00,018.3,017.6,000.0,026.8,020.0,20.6,0000.0,0007.37,0003.23,0002.79
2024-02-04 12:27:00,SystemResetWarning,0824.1,5.00,000.00,018.3,017.6,000.0,026.8,020.0,20.6,0000.0,0007.43,0003.27,0002.91
2024-02-04 12:28:00,SystemResetWarning,0824.2,5.00,000.00,018.3,017.6,000.0,026.8,020.0,20.7,0000.0,0007.04,0003.26,0002.91
2024-02-04 12:29:00,SystemResetWarning,0824.2,5.00,000.00,018.3,017.6,000.0,026.9,020.0,20.7,0000.0,0007.79,0003.22,0002.89
2024-02-04 12:30:00,SystemResetWarning,0824.1,5.00,000.00,018.3,017.6,000.0,026.9,020.0,20.7,0000.0,0007.78,0003.20,0002.85
2024-02-04 12:31:00,SystemResetWarning,0824.3,4.99,000.00,018.3,017.6,000.0,026.8,020.0,20.7,0000.0,0007.72,0003.17,0002.83
2024-02-04 12:32:00,SystemResetWarning,0824.4,4.99,000.00,018.3,017.6,000.0,026.8,020.0,20.6,0000.0,0007.55,0003.13,0002.78
2024-02-04 12:33:00,SystemResetWarning,0824.4,5.00,000.00,018.3,017.6,000.0,026.9,020.0,20.4,0000.0,0007.61,0003.00,0002.67
2024-02-04 12:34:00,SystemResetWarning,0824.4,5.00,000.00,018.3,017.7,000.0,026.9,020.1,20.2,0000.0,0007.64,0002.89,0002.54
2024-02-04 12:35:00,SystemResetWarning,0824.3,5.01,000.00,018.4,018.4,000.0,027.0,020.5,20.0,0000.0,0007.53,0002.71,0002.37
2024-02-04 12:36:00,SystemResetWarning,0824.4,5.00,000.00,018.6,019.0,000.0,027.1,020.9,19.7,0000.0,0007.20,0002.45,0002.16
2024-02-04 12:37:00,SystemResetWarning,0824.3,4.99,000.00,018.7,019.0,000.0,027.0,020.8,19.5,0000.0,0006.94,0002.21,0001.93
2024-02-04 12:38:00,SystemResetWarning,0824.4,5.00,000.00,018.8,018.9,000.0,027.0,020.7,19.4,0000.0,0006.66,0002.00,0001.74
2024-02-04 12:39:00,SystemResetWarning,0824.4,5.01,000.00,018.7,018.8,000.0,027.0,020.5,19.4,0000.0,0005.56,0001.86,0001.63
2024-02-04 12:40:00,SystemResetWarning,0824.5,5.01,000.00,018.7,018.6,000.0,026.9,020.5,19.3,0000.0,0004.62,0001.72,0001.51
2024-02-04 12:41:00,SystemResetWarning,0824.5,4.99,000.00,018.7,018.5,000.0,027.0,020.4,19.3,0000.0,0004.96,0001.58,0001.40
2024-02-04 12:42:00,SystemResetWarning,0824.5,5.00,000.00,018.7,018.4,000.0,027.0,020.4,19.3,0000.0,0004.93,0001.42,0001.26
2024-02-04 12:43:00,SystemResetWarning,0824.5,4.99,000.00,018.7,018.3,000.0,027.0,020.3,19.3,0000.0,0004.42,0001.30,0001.15
2024-02-04 12:44:00,SystemResetWarning,0824.5,5.00,000.00,018.7,018.3,000.0,026.9,020.3,19.3,0000.0,0003.48,0001.17,0001.02
2024-02-04 12:45:00,SystemResetWarning,0824.5,5.01,000.00,018.7,018.2,000.0,026.9,020.3,19.3,0000.0,0002.98,0001.11,0000.96
2024-02-04 12:46:00,SystemResetWarning,0824.5,5.01,000.00,018.6,018.2,000.0,026.9,020.2,19.3,0000.0,0002.99,0001.07,0000.89
2024-02-04 12:47:00,SystemResetWarning,0824.5,5.01,000.00,018.6,018.1,000.0,026.9,020.2,19.4,0000.0,0004.44,0001.05,0000.85
2024-02-04 12:48:00,SystemResetWarning,0824.5,5.00,000.00,018.6,018.1,000.0,026.9,020.2,19.5,0000.0,0004.62,0001.04,0000.85
2024-02-04 12:49:00,SystemResetWarning,0824.4,5.00,000.00,018.6,018.1,000.0,026.9,020.2,19.5,0000.0,0004.63,0001.05,0000.86
2024-02-04 12:50:00,SystemResetWarning,0824.5,4.99,000.00,018.5,018.0,000.0,026.9,020.2,19.7,0000.0,0004.65,0001.06,0000.86
2024-02-04 12:51:00,SystemResetWarning,0824.5,5.00,000.00,018.5,018.0,000.0,026.9,020.1,19.7,0000.0,0004.76,0001.11,0000.88
2024-02-04 12:52:00,SystemResetWarning,0824.6,5.00,000.00,018.5,018.0,000.0,026.9,020.1,19.7,0000.0,0004.21,0001.16,0000.90
2024-02-04 12:53:00,SystemResetWarning,0824.6,5.01,000.00,018.5,017.9,000.0,026.9,020.1,19.7,0000.0,0003.76,0001.18,0000.92
2024-02-04 12:54:00,SystemResetWarning,0824.7,5.00,000.00,018.5,017.9,000.0,026.9,020.0,19.8,0000.0,0004.85,0001.17,0000.93
2024-02-04 12:55:00,SystemResetWarning,0824.7,4.99,000.00,018.4,017.9,000.0,026.8,020.0,19.9,0000.0,0004.93,0001.18,0000.95
2024-02-04 12:56:00,SystemResetWarning,0824.7,4.99,000.00,018.4,017.8,000.0,026.8,020.0,20.0,0000.0,0004.98,0001.20,0000.96
2024-02-04 12:57:00,SystemResetWarning,0824.7,5.00,000.00,018.4,017.8,000.0,026.9,020.0,20.1,0000.0,0004.97,0001.21,0000.96
2024-02-04 12:58:00,SystemResetWarning,0824.7,5.01,000.00,018.4,017.8,000.0,026.9,020.0,20.1,0000.0,0004.25,0001.20,0000.97
2024-02-04 12:59:00,SystemResetWarning,0824.7,5.01,000.00,018.4,017.8,000.0,026.9,020.0,20.0,0000.0,0003.41,0001.28,0001.00
